ISS (ZARYA) 1 25544U 98067A 26144.19669721 .00007438 00000+0 14130-3 0 9991 2 25544 51.6327 58.8652 0007496 92.3340 267.8507 15.49341091568031 POISK 1 36086U 09060A 26144.13219623 .00007437 00000+0 14129-3 0 9992 2 36086 51.6327 59.1845 0007498 92.1078 268.0769 15.49340096567867 CSS (TIANHE) 1 48274U 21035A 26144.16609727 .00013333 00000+0 16511-3 0 9990 2 48274 41.4681 108.0715 0011114 271.1511 88.8054 15.59770572289414 ISS (NAUKA) 1 49044U 21066A 26144.13219623 .00007437 00000+0 14129-3 0 9990 2 49044 51.6327 59.1845 0007498 92.1078 268.0769 15.49340096567900 FREGAT DEB 1 49271U 11037PF 26144.06629538 .00014490 00000+0 23259-1 0 9990 2 49271 51.6270 74.3715 0921651 230.0171 121.6178 12.41642533222059 CSS (WENTIAN) 1 53239U 22085A 26143.26969174 .00014569 00000+0 18018-3 0 9994 2 53239 41.4680 113.5197 0011094 265.7076 94.2495 15.59745917288231 CSS (MENGTIAN) 1 54216U 22143A 26144.16609727 .00013333 00000+0 16511-3 0 9994 2 54216 41.4681 108.0715 0011114 271.1511 88.8054 15.59770572289406 HRC MONOBLOCK CAMERA 1 66052U 98067XR 26143.98404977 .00053571 00000+0 43120-3 0 9996 2 66052 51.6263 43.1582 0003604 92.5946 267.5464 15.70382102 34195 HTV-X1 1 66174U 25241A 26144.06301043 .00022493 00000+0 24039-3 0 9992 2 66174 51.6352 62.4003 0007482 91.8229 268.3622 15.63782346 32576 SZ-21 MODULE 1 66515U 25246C 26143.99869542 .00036011 00000+0 24454-3 0 9992 2 66515 41.4723 97.7312 0005202 211.1569 148.8967 15.74184312 29920 SHENZHOU-22 1 66645U 25272A 26144.16609727 .00013333 00000+0 16511-3 0 9999 2 66645 41.4681 108.0715 0011114 271.1511 88.8054 15.59770572289427 SOYUZ-MS 28 1 66664U 25275A 26144.13219623 .00007437 00000+0 14129-3 0 9993 2 66664 51.6327 59.1845 0007498 92.1078 268.0769 15.49340096567985 DUPLEX 1 66906U 98067XS 26144.11920742 .00031300 00000+0 37550-3 0 9999 2 66906 51.6290 50.8403 0005502 101.1204 259.0408 15.60608332 26890 ISS OBJECT XY 1 66912U 98067XY 26143.96040006 .00178353 00000+0 82255-3 0 9996 2 66912 51.6224 41.4425 0004890 143.2736 216.8602 15.82487355 26992 KNACKSAT-2 1 67683U 98067XZ 26144.11774880 .00037339 00000+0 49874-3 0 9992 2 67683 51.6302 55.3375 0012004 112.4180 247.8084 15.57610716 16527 CORAL 1 67684U 98067YA 26143.98125000 .00108678 00000+0 93966-3 0 9997 2 67684 51.6261 52.1573 0013338 115.3412 244.8967 15.68247821 16553 GXIBA-1 1 67685U 98067YB 26143.05151742 .00041599 00000+0 53240-3 0 9997 2 67685 51.6285 60.2163 0013659 105.9303 254.3195 15.58672502 16360 UITMSAT-2 1 67686U 98067YC 26144.00402041 .00055026 00000+0 64130-3 0 9995 2 67686 51.6280 54.5781 0010031 95.0052 265.2086 15.61059267 16528 LEOPARD 1 67687U 98067YD 26143.96675502 .00041879 00000+0 54507-3 0 9992 2 67687 51.6306 55.8372 0009882 92.7604 267.4520 15.58275549 16422 HMU-SAT2 1 67688U 98067YE 26144.03742781 .00051368 00000+0 62416-3 0 9998 2 67688 51.6292 54.8062 0009910 93.9639 266.2487 15.60000995 16440 CREW DRAGON 12 1 67796U 26031A 26144.13219623 .00007437 00000+0 14129-3 0 9991 2 67796 51.6327 59.1845 0007498 92.1078 268.0769 15.49340096567948 PROGRESS-MS 33 1 68319U 26058A 26144.13219623 .00007437 00000+0 14129-3 0 9992 2 68319 51.6327 59.1845 0007498 92.1078 268.0769 15.49340096568020 CYGNUS NG-24 1 68689U 26079A 26143.16467706 .00007181 00000+0 13679-3 0 9999 2 68689 51.6326 63.9740 0007533 88.4093 271.7758 15.49323528567895 PROGRESS-MS 34 1 68837U 26093A 26143.16467706 .00007181 00000+0 13679-3 0 9990 2 68837 51.6326 63.9740 0007533 88.4093 271.7758 15.49323528567935 TIANZHOU-10 1 69049U 26102A 26143.26969174 .00014569 00000+0 18018-3 0 9994 2 69049 41.4680 113.5197 0011094 265.7076 94.2495 15.59745917289261 DRAGON CRS-34 1 69103U 26107A 26144.13219623 .00007437 00000+0 14129-3 0 9999 2 69103 51.6327 59.1845 0007498 92.1078 268.0769 15.49340096568145